COSMOS 1275 DEB, 12737

Orbit data source: Space-Track

COSMOS 1275 DEB, 12737 is space debris in LEO originally from a launch on Thu, 04 Jun 1981 UTC launched from the Plesetsk Missile And Space Complex (PKMTR). Debris objects in space refer to the collection of defunct objects orbiting the Earth. Examples of debris include non-operational satellites, rocket bodies, and fragments generated from explosions, collisions, or faulty payload assembly.

Loading next visibility...
Identifier
12737, 1981-053CE
Orbit
LEO
Country
Flag of CISCIS
Related business
Manufacturer
Unknown
Mission
Spacecraft
Bus & Motor
Unknown
Mass
Unknown
Launch date (UTC)
1981-06-04 (45 years ago)
Launch vehicle
Unknown
Launch site
Plesetsk Missile And Space Complex (PKMTR)
Object type
Payload
Rocket body
Debris
Shape & HBR
Unknown shape, 0.2 m
Radar Cross Section
Small (<0.1 m²)

Expand to show TLE details & history
Last TLE update: 4 hours ago

TLE from 4 hours ago
0 COSMOS 1275 DEB
1 12737U 81053CE  26119.61313561  .00001400  00000-0  13780-2 0  9998
2 12737  82.9804 313.1813 0147775 246.8292 178.5388 13.73478565220099
Epoch: 2026-04-29T14:42Z
TLE epoch observation values (Epoch: 2026-04-29T14:42:54.916Z)
Latitude
64.57266°
Longitude
-110.18695°
Altitude
1,107.072 km
Speed
7.251 km/s
True Right ascension
21h 52m 27s
True Declination
64° 26' 43"
Sunlit
Object was in daylight at epoch
Visualization orbit readout
Latitude
Unknown
Longitude
Unknown
Altitude
Unknown
Speed
Unknown
Apparent Right ascension
Unknown
Apparent Declination
Unknown
Sunlit
N/A
Visualization observer readout
Local Sidereal Time
02:26:03
Azimuth
Unknown
Elevation
Unknown
Doppler factor
Unknown
Orbital elements
Apogee altitude
1,093.055 km
Perigee altitude
875.46 km
Semi-major axis
7,362.394 km
Eccentricity
0.01478
Inclination
82.9804°
RAAN
313.1813°
Arg. of periapsis
246.8292°
True anomaly
178.5812°
Mean anomaly
178.5388°
Eccentric anomaly
178.56008°
Mean motion
3.43569 °/min
Orbital period
104.78 mins
BSTAR
0.001378
Loading maneuver chart data...
Computing Atmospheric mass density...
Loading historical data...
Loading historical data...
Loading historical data...
Loading historical data...
Loading historical data...
Loading historical data...
Loading historical data...

Documentation

Showing up to 5 results
|